カタログに戻る

FENGYUN 1C DEB

運用中SSO
NORAD 30102·DEBRIS·🇨🇳 China

打ち上げ May 10, 1999 から Taiyuan Satellite Launch Center

Loading…

次のパス (今後24時間)

TLE

最新Source: Space-Track

元期: Sep 14, 2026, 11:01 UTC

1 30102U 99025RF  26257.45949316  .00000364  00000-0  16529-3 0  9993
2 30102  98.3834 256.7893 0139935 274.7766 249.9958 14.22427457 18768

AllMySatでFENGYUN 1C DEBをリアルタイム追跡

Download on the App Store